Regional Weather Roundup
Issued by NWS

Home | Current Version | Previous Version | Text Only | Print | Product List | Glossary On
Versions: 1 2 3 4 5 6 7 8 9 10 11 12 13 14 15 16 17 18 19 20 21 22 23 24 25 26 27 28 29 30 31 32 33 34 35 36 37 38 39 40 41 42 43 44 45 46 47 48 49 50
000
ASCA42 TJSJ 161011
RWRPR
PUERTO RICO/U.S. VIRGIN ISLANDS HOURLY WEATHER ROUNDUP
NATIONAL WEATHER SERVICE SAN JUAN PR
600 AM AST WED APR 16 2014

PRZ001-004-161100-
PUERTO RICO

CITY           SKY/WX    TMP DP  RH WIND       PRES   REMARKS
SAN JUAN LMM   PTCLDY    79  72  78 CALM      29.97R
PONCE          PTCLDY    70  68  94 CALM      29.93R
AGUADILLA      CLEAR     70  66  88 E6        29.98R
CEIBA          PTCLDY    77  70  78 E3        29.99R
$$

PRZ006-007-161100-
U.S. VIRGIN ISLANDS

CITY           SKY/WX    TMP DP  RH WIND       PRES   REMARKS
CHARLOTTE AMA  CLEAR     75  72  88 CALM      29.96R
CHRISTIANSTED  CLEAR     73  68  83 N5        29.96R
$$

HOURLY WEATHER ROUNDUP FOR THE NEWS MEDIA

CITY           SKY/WX    TMP DP  RH WIND       PRES   REMARKS
MIAMI          PTCLDY    73  69  87 N6        29.96R
ORLANDO        CLOUDY    54  46  74 N12       30.07R
NEW YORK       PTCLDY    33  19  56 NW21G26   30.13R WCI  21
NEWARK         PTCLDY    31  18  58 NW21G29   30.15R WCI  18
CHICAGO        PTCLDY    27  19  72 S7        30.24R WCI  19
HARTFORD       FLURRIES  34  31  88 VRB6G17   29.89R WCI  29
BOSTON         CLOUDY    35  29  78 NW12G21   29.94R WCI  27
DALLAS         MOCLDY    49  29  46 S17       30.09S
PHILADELPHIA   PTCLDY    32  11  41 NW20G31   30.23R WCI  20



USA.gov is the U.S. government's official web portal to all federal, state and local government web resources and services.